Time,TemperatureF,DewpointF,PressureIn,WindDirection,WindDirectionDegrees,WindSpeedMPH,WindSpeedGustMPH,Humidity,HourlyPrecipIn,Conditions,Clouds,dailyrainin,SoftwareType,DateUTC
2013-02-22 00:00:00,22.5,-4.9,30.24,NNW,345,4.0,5.8,29,0.00,,,-99.99,FreeWX-Wi 1.02,2013-02-22 05:00:00,
2013-02-22 00:06:00,22.6,-4.7,30.24,NNW,346,4.0,6.3,29,0.00,,,-99.99,FreeWX-Wi 1.02,2013-02-22 05:06:00,
2013-02-22 00:11:00,22.5,-4.9,30.24,NNW,346,4.0,5.4,29,0.00,,,-99.99,FreeWX-Wi 1.02,2013-02-22 05:11:00,
2013-02-22 00:16:00,22.5,-4.9,30.24,NNW,342,3.0,5.8,29,0.00,,,-99.99,FreeWX-Wi 1.02,2013-02-22 05:16:00,
2013-02-22 00:21:00,22.3,-5.1,30.27,NNW,340,3.0,7.2,29,0.00,,,-99.99,FreeWX-Wi 1.02,2013-02-22 05:21:00,
2013-02-22 00:26:00,22.5,-4.9,30.27,NNW,339,3.0,4.0,29,0.00,,,-99.99,FreeWX-Wi 1.02,2013-02-22 05:26:00,
2013-02-22 00:31:00,22.5,-4.9,30.27,NNW,342,3.0,6.3,29,0.00,,,-99.99,FreeWX-Wi 1.02,2013-02-22 05:31:00,
2013-02-22 00:36:00,22.6,-4.7,30.27,NNW,343,3.0,7.2,29,0.00,,,-99.99,FreeWX-Wi 1.02,2013-02-22 05:36:00,
2013-02-22 00:41:00,22.5,-4.9,30.27,NNW,346,3.0,5.8,29,0.00,,,-99.99,FreeWX-Wi 1.02,2013-02-22 05:41:00,
2013-02-22 00:46:00,22.3,-5.1,30.27,NNW,348,3.0,6.3,29,0.00,,,-99.99,FreeWX-Wi 1.02,2013-02-22 05:46:00,
2013-02-22 00:51:00,22.5,-4.9,30.27,North,352,3.0,6.3,29,0.00,,,-99.99,FreeWX-Wi 1.02,2013-02-22 05:51:00,
2013-02-22 00:56:00,22.1,-5.3,30.27,North,355,3.0,5.4,29,0.00,,,-99.99,FreeWX-Wi 1.02,2013-02-22 05:56:00,
2013-02-22 01:01:00,22.1,-4.5,30.27,North,353,3.0,4.9,30,0.00,,,-99.99,FreeWX-Wi 1.02,2013-02-22 06:01:00,
2013-02-22 01:06:00,22.1,-4.5,30.27,North,353,3.0,4.0,30,0.00,,,-99.99,FreeWX-Wi 1.02,2013-02-22 06:06:00,
2013-02-22 01:11:00,22.3,-5.1,30.27,North,354,3.0,6.3,29,0.00,,,-99.99,FreeWX-Wi 1.02,2013-02-22 06:11:00,
2013-02-22 01:16:00,22.5,-4.9,30.27,North,358,3.0,6.3,29,0.00,,,-99.99,FreeWX-Wi 1.02,2013-02-22 06:16:00,
2013-02-22 01:21:00,22.3,-5.1,30.24,North,356,3.0,5.8,29,0.00,,,-99.99,FreeWX-Wi 1.02,2013-02-22 06:21:00,
2013-02-22 01:26:00,21.9,-4.7,30.24,North,359,3.0,3.6,30,0.00,,,-99.99,FreeWX-Wi 1.02,2013-02-22 06:26:00,
2013-02-22 01:31:00,21.7,-4.9,30.24,North,358,3.0,5.4,30,0.00,,,-99.99,FreeWX-Wi 1.02,2013-02-22 06:31:00,
2013-02-22 01:36:00,21.6,-5.1,30.27,North,356,3.0,3.6,30,0.00,,,-99.99,FreeWX-Wi 1.02,2013-02-22 06:36:00,
2013-02-22 01:41:00,21.4,-5.3,30.27,North,352,2.0,4.0,30,0.00,,,-99.99,FreeWX-Wi 1.02,2013-02-22 06:41:00,
2013-02-22 01:46:00,21.4,-3.8,30.27,NNW,347,2.0,4.9,32,0.00,,,-99.99,FreeWX-Wi 1.02,2013-02-22 06:46:00,
2013-02-22 01:51:00,21.2,-4.0,30.27,NNW,346,2.0,4.9,32,0.00,,,-99.99,FreeWX-Wi 1.02,2013-02-22 06:51:00,
2013-02-22 01:56:00,21.4,-3.8,30.27,NNW,344,2.0,5.8,32,0.00,,,-99.99,FreeWX-Wi 1.02,2013-02-22 06:56:00,
2013-02-22 02:01:00,21.4,-3.8,30.27,NNW,345,2.0,5.8,32,0.00,,,-99.99,FreeWX-Wi 1.02,2013-02-22 07:01:00,
2013-02-22 02:06:00,21.6,-3.6,30.24,NNW,346,3.0,5.4,32,0.00,,,-99.99,FreeWX-Wi 1.02,2013-02-22 07:06:00,
2013-02-22 02:11:00,21.6,-3.6,30.24,North,350,3.0,6.3,32,0.00,,,-99.99,FreeWX-Wi 1.02,2013-02-22 07:11:00,
2013-02-22 02:16:00,21.6,-3.6,30.24,North,353,3.0,5.8,32,0.00,,,-99.99,FreeWX-Wi 1.02,2013-02-22 07:16:00,
2013-02-22 02:21:00,21.4,-3.8,30.24,North,355,3.0,5.8,32,0.00,,,-99.99,FreeWX-Wi 1.02,2013-02-22 07:21:00,
2013-02-22 02:26:00,21.4,-2.0,30.24,North,357,3.0,5.8,35,0.00,,,-99.99,FreeWX-Wi 1.02,2013-02-22 07:26:00,
2013-02-22 02:31:00,21.4,-2.0,30.24,North,359,3.0,5.8,35,0.00,,,-99.99,FreeWX-Wi 1.02,2013-02-22 07:31:00,
2013-02-22 02:36:00,21.4,-2.0,30.24,North,359,3.0,4.9,35,0.00,,,-99.99,FreeWX-Wi 1.02,2013-02-22 07:36:00,
2013-02-22 02:41:00,21.6,-1.8,30.24,North,359,3.0,6.3,35,0.00,,,-99.99,FreeWX-Wi 1.02,2013-02-22 07:41:00,
2013-02-22 02:46:00,21.9,-1.5,30.24,North,0,3.0,6.3,35,0.00,,,-99.99,FreeWX-Wi 1.02,2013-02-22 07:46:00,
2013-02-22 02:51:00,21.7,-1.7,30.24,North,2,3.0,6.3,35,0.00,,,-99.99,FreeWX-Wi 1.02,2013-02-22 07:51:00,
2013-02-22 02:56:00,21.9,-1.5,30.24,North,0,4.0,7.2,35,0.00,,,-99.99,FreeWX-Wi 1.02,2013-02-22 07:56:00,
2013-02-22 03:01:00,21.9,-1.5,30.24,North,359,4.0,5.8,35,0.00,,,-99.99,FreeWX-Wi 1.02,2013-02-22 08:01:00,
2013-02-22 03:06:00,22.3,-1.1,30.27,North,358,4.0,6.3,35,0.00,,,-99.99,FreeWX-Wi 1.02,2013-02-22 08:06:00,
2013-02-22 03:11:00,21.9,-1.5,30.27,North,358,4.0,6.3,35,0.00,,,-99.99,FreeWX-Wi 1.02,2013-02-22 08:11:00,
2013-02-22 03:16:00,21.9,-1.5,30.27,North,358,4.0,5.8,35,0.00,,,-99.99,FreeWX-Wi 1.02,2013-02-22 08:16:00,
2013-02-22 03:21:00,22.3,-1.1,30.27,North,358,4.0,7.6,35,0.00,,,-99.99,FreeWX-Wi 1.02,2013-02-22 08:21:00,
2013-02-22 03:26:00,21.9,-1.5,30.27,North,359,4.0,4.9,35,0.00,,,-99.99,FreeWX-Wi 1.02,2013-02-22 08:26:00,
2013-02-22 03:31:00,22.3,-1.1,30.27,North,3,4.0,6.3,35,0.00,,,-99.99,FreeWX-Wi 1.02,2013-02-22 08:31:00,
2013-02-22 03:36:00,22.5,-0.9,30.24,North,2,4.0,6.3,35,0.00,,,-99.99,FreeWX-Wi 1.02,2013-02-22 08:36:00,
2013-02-22 03:41:00,22.3,-1.1,30.24,North,1,4.0,4.9,35,0.00,,,-99.99,FreeWX-Wi 1.02,2013-02-22 08:41:00,
2013-02-22 03:46:00,22.1,-0.2,30.24,North,1,4.0,6.7,37,0.00,,,-99.99,FreeWX-Wi 1.02,2013-02-22 08:46:00,
2013-02-22 03:51:00,22.1,-0.2,30.27,North,0,3.0,5.8,37,0.00,,,-99.99,FreeWX-Wi 1.02,2013-02-22 08:51:00,
2013-02-22 03:56:00,22.3,0.0,30.27,North,357,3.0,6.3,37,0.00,,,-99.99,FreeWX-Wi 1.02,2013-02-22 08:56:00,
2013-02-22 04:01:00,22.3,0.0,30.27,North,353,3.0,5.8,37,0.00,,,-99.99,FreeWX-Wi 1.02,2013-02-22 09:01:00,
2013-02-22 04:06:00,22.1,-0.2,30.27,North,352,3.0,5.4,37,0.00,,,-99.99,FreeWX-Wi 1.02,2013-02-22 09:06:00,
2013-02-22 04:11:00,22.1,-0.2,30.27,North,349,3.0,4.0,37,0.00,,,-99.99,FreeWX-Wi 1.02,2013-02-22 09:11:00,
2013-02-22 04:16:00,21.9,-0.4,30.27,NNW,347,3.0,4.9,37,0.00,,,-99.99,FreeWX-Wi 1.02,2013-02-22 09:16:00,
2013-02-22 04:21:00,21.9,-0.4,30.30,NNW,346,2.0,3.1,37,0.00,,,-99.99,FreeWX-Wi 1.02,2013-02-22 09:21:00,
2013-02-22 04:26:00,21.9,1.4,30.30,NNW,346,2.0,4.9,40,0.00,,,-99.99,FreeWX-Wi 1.02,2013-02-22 09:26:00,
2013-02-22 04:31:00,21.9,1.4,30.30,North,350,2.0,3.1,40,0.00,,,-99.99,FreeWX-Wi 1.02,2013-02-22 09:31:00,
2013-02-22 04:36:00,21.9,1.4,30.30,North,349,2.0,3.6,40,0.00,,,-99.99,FreeWX-Wi 1.02,2013-02-22 09:36:00,
2013-02-22 04:41:00,21.9,1.4,30.30,North,350,2.0,3.6,40,0.00,,,-99.99,FreeWX-Wi 1.02,2013-02-22 09:41:00,
2013-02-22 04:46:00,21.9,2.3,30.30,North,352,2.0,4.0,42,0.00,,,-99.99,FreeWX-Wi 1.02,2013-02-22 09:46:00,
2013-02-22 04:51:00,21.6,2.1,30.30,North,353,2.0,4.0,42,0.00,,,-99.99,FreeWX-Wi 1.02,2013-02-22 09:51:00,
2013-02-22 04:56:00,21.6,4.5,30.30,North,354,2.0,4.0,47,0.00,,,-99.99,FreeWX-Wi 1.02,2013-02-22 09:56:00,
2013-02-22 05:01:00,21.9,3.9,30.30,North,351,2.0,5.8,45,0.00,,,-99.99,FreeWX-Wi 1.02,2013-02-22 10:01:00,
2013-02-22 05:06:00,22.1,2.5,30.33,North,352,2.0,5.4,42,0.00,,,-99.99,FreeWX-Wi 1.02,2013-02-22 10:06:00,
2013-02-22 05:11:00,22.1,2.5,30.33,North,351,2.0,4.9,42,0.00,,,-99.99,FreeWX-Wi 1.02,2013-02-22 10:11:00,
2013-02-22 05:16:00,22.1,4.1,30.33,North,351,2.0,4.9,45,0.00,,,-99.99,FreeWX-Wi 1.02,2013-02-22 10:16:00,
2013-02-22 05:21:00,22.5,2.8,30.33,North,351,2.0,5.4,42,0.00,,,-99.99,FreeWX-Wi 1.02,2013-02-22 10:21:00,
2013-02-22 05:26:00,22.5,2.8,30.33,North,350,2.0,5.4,42,0.00,,,-99.99,FreeWX-Wi 1.02,2013-02-22 10:26:00,
2013-02-22 05:31:00,22.3,2.7,30.33,North,352,2.0,5.8,42,0.00,,,-99.99,FreeWX-Wi 1.02,2013-02-22 10:31:00,
2013-02-22 05:36:00,22.1,5.0,30.33,North,353,2.0,4.5,47,0.00,,,-99.99,FreeWX-Wi 1.02,2013-02-22 10:36:00,
2013-02-22 05:41:00,22.1,5.0,30.33,North,353,2.0,3.6,47,0.00,,,-99.99,FreeWX-Wi 1.02,2013-02-22 10:41:00,
2013-02-22 05:46:00,21.9,5.4,30.33,North,354,2.0,3.6,48,0.00,,,-99.99,FreeWX-Wi 1.02,2013-02-22 10:46:00,
2013-02-22 05:51:00,21.6,5.0,30.33,North,354,2.0,3.6,48,0.00,,,-99.99,FreeWX-Wi 1.02,2013-02-22 10:51:00,
2013-02-22 05:56:00,21.6,5.4,30.33,North,355,2.0,3.1,49,0.00,,,-99.99,FreeWX-Wi 1.02,2013-02-22 10:56:00,
2013-02-22 06:01:00,21.7,5.2,30.33,North,354,1.0,3.1,48,0.00,,,-99.99,FreeWX-Wi 1.02,2013-02-22 11:01:00,
2013-02-22 06:06:00,21.7,5.5,30.33,North,352,1.0,3.6,49,0.00,,,-99.99,FreeWX-Wi 1.02,2013-02-22 11:06:00,
2013-02-22 06:11:00,21.7,5.5,30.33,North,352,1.0,3.1,49,0.00,,,-99.99,FreeWX-Wi 1.02,2013-02-22 11:11:00,
2013-02-22 06:16:00,21.9,5.7,30.33,North,352,1.0,3.6,49,0.00,,,-99.99,FreeWX-Wi 1.02,2013-02-22 11:16:00,
2013-02-22 06:21:00,21.7,5.5,30.33,North,351,1.0,4.0,49,0.00,,,-99.99,FreeWX-Wi 1.02,2013-02-22 11:21:00,
2013-02-22 06:26:00,21.6,5.4,30.33,North,353,1.0,3.6,49,0.00,,,-99.99,FreeWX-Wi 1.02,2013-02-22 11:26:00,
2013-02-22 06:31:00,21.7,5.5,30.33,North,356,1.0,4.9,49,0.00,,,-99.99,FreeWX-Wi 1.02,2013-02-22 11:31:00,
2013-02-22 06:36:00,21.7,5.5,30.36,North,358,1.0,4.0,49,0.00,,,-99.99,FreeWX-Wi 1.02,2013-02-22 11:36:00,
2013-02-22 06:41:00,21.9,5.7,30.36,North,0,1.0,4.0,49,0.00,,,-99.99,FreeWX-Wi 1.02,2013-02-22 11:41:00,
2013-02-22 06:46:00,21.7,5.5,30.36,North,358,1.0,3.1,49,0.00,,,-99.99,FreeWX-Wi 1.02,2013-02-22 11:46:00,
2013-02-22 06:51:00,21.7,5.5,30.36,North,354,1.0,0.0,49,0.00,,,-99.99,FreeWX-Wi 1.02,2013-02-22 11:51:00,
2013-02-22 06:56:00,21.9,5.7,30.36,NNW,348,1.0,3.1,49,0.00,,,-99.99,FreeWX-Wi 1.02,2013-02-22 11:56:00,
2013-02-22 07:01:00,21.9,5.7,30.36,North,-999,0.0,0.0,49,0.00,,,-99.99,FreeWX-Wi 1.02,2013-02-22 12:01:00,
2013-02-22 07:06:00,22.5,6.3,30.36,North,-999,0.0,0.0,49,0.00,,,-99.99,FreeWX-Wi 1.02,2013-02-22 12:06:00,
2013-02-22 07:11:00,23.0,6.3,30.36,North,-999,0.0,3.1,48,0.00,,,-99.99,FreeWX-Wi 1.02,2013-02-22 12:11:00,
2013-02-22 07:16:00,23.4,6.1,30.36,North,-999,0.0,3.6,47,0.00,,,-99.99,FreeWX-Wi 1.02,2013-02-22 12:16:00,
2013-02-22 07:21:00,23.5,6.3,30.36,North,-999,0.0,3.1,47,0.00,,,-99.99,FreeWX-Wi 1.02,2013-02-22 12:21:00,
2013-02-22 07:26:00,23.5,6.3,30.36,North,-999,0.0,0.0,47,0.00,,,-99.99,FreeWX-Wi 1.02,2013-02-22 12:26:00,
2013-02-22 10:10:00,35.6,4.1,30.39,NE,55,3.0,5.4,26,0.00,,,-99.99,FreeWX-Wi 1.02,2013-02-22 15:10:00,
2013-02-22 10:15:00,35.8,4.3,30.39,NE,44,3.0,6.3,26,0.00,,,-99.99,FreeWX-Wi 1.02,2013-02-22 15:15:00,
2013-02-22 10:20:00,35.8,4.3,30.36,NNE,33,3.0,5.4,26,0.00,,,-99.99,FreeWX-Wi 1.02,2013-02-22 15:20:00,
2013-02-22 10:25:00,36.7,5.0,30.36,NNE,28,3.0,6.3,26,0.00,,,-99.99,FreeWX-Wi 1.02,2013-02-22 15:25:00,
2013-02-22 10:30:00,37.0,5.4,30.36,NNE,26,3.0,5.8,26,0.00,,,-99.99,FreeWX-Wi 1.02,2013-02-22 15:30:00,
2013-02-22 10:35:00,36.9,5.2,30.36,NNE,25,3.0,6.3,26,0.00,,,-99.99,FreeWX-Wi 1.02,2013-02-22 15:35:00,
2013-02-22 10:40:00,37.6,5.0,30.36,NNE,30,3.0,4.0,25,0.00,,,-99.99,FreeWX-Wi 1.02,2013-02-22 15:40:00,
2013-02-22 10:45:00,36.9,5.2,30.36,NE,37,3.0,4.9,26,0.00,,,-99.99,FreeWX-Wi 1.02,2013-02-22 15:45:00,
2013-02-22 10:50:00,37.9,5.4,30.36,NE,45,3.0,4.0,25,0.00,,,-99.99,FreeWX-Wi 1.02,2013-02-22 15:50:00,
2013-02-22 10:55:00,40.8,7.7,30.36,NE,46,3.0,4.0,25,0.00,,,-99.99,FreeWX-Wi 1.02,2013-02-22 15:55:00,
2013-02-22 11:00:00,41.2,8.1,30.36,ENE,62,3.0,3.6,25,0.00,,,-99.99,FreeWX-Wi 1.02,2013-02-22 16:00:00,
2013-02-22 11:05:00,43.0,8.8,30.36,ENE,63,2.0,4.5,24,0.00,,,-99.99,FreeWX-Wi 1.02,2013-02-22 16:05:00,
2013-02-22 11:10:00,43.5,9.1,30.36,NE,56,2.0,4.0,24,0.00,,,-99.99,FreeWX-Wi 1.02,2013-02-22 16:10:00,
2013-02-22 11:15:00,41.2,8.1,30.36,NE,47,2.0,4.9,25,0.00,,,-99.99,FreeWX-Wi 1.02,2013-02-22 16:15:00,
2013-02-22 11:20:00,42.4,9.1,30.36,ENE,57,2.0,4.5,25,0.00,,,-99.99,FreeWX-Wi 1.02,2013-02-22 16:20:00,
2013-02-22 11:25:00,41.4,8.2,30.36,NE,49,2.0,4.0,25,0.00,,,-99.99,FreeWX-Wi 1.02,2013-02-22 16:25:00,
2013-02-22 11:30:00,41.9,8.6,30.36,NE,50,2.0,5.4,25,0.00,,,-99.99,FreeWX-Wi 1.02,2013-02-22 16:30:00,
2013-02-22 11:35:00,41.7,8.6,30.36,ENE,63,2.0,4.0,25,0.00,,,-99.99,FreeWX-Wi 1.02,2013-02-22 16:35:00,
2013-02-22 11:40:00,44.2,9.7,30.36,East,83,2.0,4.0,24,0.00,,,-99.99,FreeWX-Wi 1.02,2013-02-22 16:40:00,
2013-02-22 11:45:00,43.5,9.1,30.36,East,84,2.0,4.0,24,0.00,,,-99.99,FreeWX-Wi 1.02,2013-02-22 16:45:00,
2013-02-22 11:50:00,44.2,9.7,30.36,ENE,71,2.0,3.6,24,0.00,,,-99.99,FreeWX-Wi 1.02,2013-02-22 16:50:00,
2013-02-22 11:56:00,43.2,8.8,30.36,ENE,64,2.0,3.6,24,0.00,,,-99.99,FreeWX-Wi 1.02,2013-02-22 16:56:00,
2013-02-22 12:01:00,43.5,9.1,30.36,NE,36,1.0,4.0,24,0.00,,,-99.99,FreeWX-Wi 1.02,2013-02-22 17:01:00,
2013-02-22 12:06:00,42.6,9.3,30.36,NNE,12,1.0,5.8,25,0.00,,,-99.99,FreeWX-Wi 1.02,2013-02-22 17:06:00,
2013-02-22 12:11:00,42.3,9.0,30.36,NNW,328,1.0,4.0,25,0.00,,,-99.99,FreeWX-Wi 1.02,2013-02-22 17:11:00,
2013-02-22 12:16:00,41.9,8.6,30.36,WSW,257,1.0,4.0,25,0.00,,,-99.99,FreeWX-Wi 1.02,2013-02-22 17:16:00,
2013-02-22 12:21:00,41.4,8.2,30.36,SW,226,1.0,4.0,25,0.00,,,-99.99,FreeWX-Wi 1.02,2013-02-22 17:21:00,
2013-02-22 12:26:00,42.6,9.3,30.36,SSW,208,2.0,4.0,25,0.00,,,-99.99,FreeWX-Wi 1.02,2013-02-22 17:26:00,
2013-02-22 12:31:00,44.8,10.2,30.36,SSW,196,2.0,4.0,24,0.00,,,-99.99,FreeWX-Wi 1.02,2013-02-22 17:31:00,
2013-02-22 12:36:00,45.1,10.6,30.36,SSW,192,2.0,5.4,24,0.00,,,-99.99,FreeWX-Wi 1.02,2013-02-22 17:36:00,
2013-02-22 12:41:00,44.1,9.7,30.36,South,170,2.0,4.0,24,0.00,,,-99.99,FreeWX-Wi 1.02,2013-02-22 17:41:00,
2013-02-22 12:46:00,41.9,8.6,30.36,SSE,153,2.0,3.6,25,0.00,,,-99.99,FreeWX-Wi 1.02,2013-02-22 17:46:00,
2013-02-22 12:51:00,41.5,8.4,30.36,SE,135,2.0,6.3,25,0.00,,,-99.99,FreeWX-Wi 1.02,2013-02-22 17:51:00,
2013-02-22 12:56:00,43.3,9.0,30.36,ESE,123,2.0,5.8,24,0.00,,,-99.99,FreeWX-Wi 1.02,2013-02-22 17:56:00,
2013-02-22 13:01:00,42.3,9.0,30.36,ESE,120,2.0,3.6,25,0.00,,,-99.99,FreeWX-Wi 1.02,2013-02-22 18:01:00,
2013-02-22 13:06:00,41.2,8.1,30.36,SE,136,2.0,4.5,25,0.00,,,-99.99,FreeWX-Wi 1.02,2013-02-22 18:06:00,
2013-02-22 13:11:00,42.3,9.0,30.36,SE,137,2.0,3.6,25,0.00,,,-99.99,FreeWX-Wi 1.02,2013-02-22 18:11:00,
2013-02-22 13:16:00,41.5,8.4,30.36,SE,137,2.0,3.6,25,0.00,,,-99.99,FreeWX-Wi 1.02,2013-02-22 18:16:00,
2013-02-22 13:21:00,41.2,8.1,30.36,SE,144,1.0,4.0,25,0.00,,,-99.99,FreeWX-Wi 1.02,2013-02-22 18:21:00,
2013-02-22 13:26:00,41.5,8.4,30.36,SE,145,1.0,4.0,25,0.00,,,-99.99,FreeWX-Wi 1.02,2013-02-22 18:26:00,
2013-02-22 13:31:00,41.4,8.2,30.36,SSE,151,2.0,4.9,25,0.00,,,-99.99,FreeWX-Wi 1.02,2013-02-22 18:31:00,
2013-02-22 13:36:00,41.7,8.6,30.36,SE,142,2.0,5.8,25,0.00,,,-99.99,FreeWX-Wi 1.02,2013-02-22 18:36:00,
2013-02-22 13:41:00,44.2,9.7,30.36,SSE,157,2.0,4.0,24,0.00,,,-99.99,FreeWX-Wi 1.02,2013-02-22 18:41:00,
2013-02-22 13:46:00,44.8,10.2,30.36,SSE,150,2.0,2.7,24,0.00,,,-99.99,FreeWX-Wi 1.02,2013-02-22 18:46:00,
2013-02-22 13:51:00,42.4,9.1,30.33,SSE,160,2.0,4.9,25,0.00,,,-99.99,FreeWX-Wi 1.02,2013-02-22 18:51:00,
2013-02-22 13:56:00,40.5,7.5,30.33,SSE,163,2.0,4.0,25,0.00,,,-99.99,FreeWX-Wi 1.02,2013-02-22 18:56:00,
2013-02-22 14:01:00,39.9,7.0,30.33,SSE,152,1.0,5.4,25,0.00,,,-99.99,FreeWX-Wi 1.02,2013-02-22 19:01:00,
2013-02-22 14:06:00,37.9,5.4,30.33,SSE,157,1.0,5.8,25,0.00,,,-99.99,FreeWX-Wi 1.02,2013-02-22 19:06:00,
2013-02-22 14:11:00,37.9,5.4,30.33,SE,144,1.0,4.0,25,0.00,,,-99.99,FreeWX-Wi 1.02,2013-02-22 19:11:00,
2013-02-22 14:16:00,37.4,4.8,30.33,SE,138,2.0,4.9,25,0.00,,,-99.99,FreeWX-Wi 1.02,2013-02-22 19:16:00,
2013-02-22 14:21:00,37.4,4.8,30.33,SE,137,2.0,4.0,25,0.00,,,-99.99,FreeWX-Wi 1.02,2013-02-22 19:21:00,
2013-02-22 14:26:00,37.8,5.2,30.33,SE,125,2.0,4.0,25,0.00,,,-99.99,FreeWX-Wi 1.02,2013-02-22 19:26:00,
2013-02-22 14:31:00,38.1,5.4,30.33,SE,127,2.0,3.1,25,0.00,,,-99.99,FreeWX-Wi 1.02,2013-02-22 19:31:00,
2013-02-22 14:36:00,37.0,5.4,30.33,ESE,116,2.0,4.0,26,0.00,,,-99.99,FreeWX-Wi 1.02,2013-02-22 19:36:00,
2013-02-22 14:41:00,37.4,4.8,30.33,ESE,119,2.0,5.4,25,0.00,,,-99.99,FreeWX-Wi 1.02,2013-02-22 19:41:00,
2013-02-22 14:46:00,37.8,5.2,30.33,ESE,115,2.0,4.9,25,0.00,,,-99.99,FreeWX-Wi 1.02,2013-02-22 19:46:00,
2013-02-22 14:51:00,37.4,4.8,30.33,ESE,112,2.0,3.6,25,0.00,,,-99.99,FreeWX-Wi 1.02,2013-02-22 19:51:00,
2013-02-22 14:56:00,37.6,5.0,30.33,ESE,116,2.0,3.6,25,0.00,,,-99.99,FreeWX-Wi 1.02,2013-02-22 19:56:00,
2013-02-22 15:01:00,37.6,5.0,30.33,SE,129,2.0,3.1,25,0.00,,,-99.99,FreeWX-Wi 1.02,2013-02-22 20:01:00,
2013-02-22 15:06:00,36.9,5.2,30.33,SE,140,2.0,3.6,26,0.00,,,-99.99,FreeWX-Wi 1.02,2013-02-22 20:06:00,
2013-02-22 15:11:00,36.7,5.0,30.33,SSE,150,2.0,3.1,26,0.00,,,-99.99,FreeWX-Wi 1.02,2013-02-22 20:11:00,
2013-02-22 15:16:00,36.5,5.0,30.33,SSE,164,1.0,3.1,26,0.00,,,-99.99,FreeWX-Wi 1.02,2013-02-22 20:16:00,
2013-02-22 15:21:00,36.1,4.6,30.33,SSE,167,1.0,3.6,26,0.00,,,-99.99,FreeWX-Wi 1.02,2013-02-22 20:21:00,
2013-02-22 15:26:00,36.3,4.8,30.33,South,175,1.0,3.6,26,0.00,,,-99.99,FreeWX-Wi 1.02,2013-02-22 20:26:00,
2013-02-22 15:31:00,36.3,4.8,30.33,South,173,1.0,3.1,26,0.00,,,-99.99,FreeWX-Wi 1.02,2013-02-22 20:31:00,
2013-02-22 15:36:00,36.1,4.6,30.33,SSE,160,1.0,4.0,26,0.00,,,-99.99,FreeWX-Wi 1.02,2013-02-22 20:36:00,
2013-02-22 15:41:00,36.1,4.6,30.33,SSE,149,1.0,4.0,26,0.00,,,-99.99,FreeWX-Wi 1.02,2013-02-22 20:41:00,
2013-02-22 15:46:00,36.1,4.6,30.33,SE,132,1.0,3.6,26,0.00,,,-99.99,FreeWX-Wi 1.02,2013-02-22 20:46:00,
2013-02-22 15:51:00,36.0,4.5,30.33,ESE,115,1.0,3.6,26,0.00,,,-99.99,FreeWX-Wi 1.02,2013-02-22 20:51:00,
2013-02-22 15:56:00,35.8,4.3,30.33,ESE,103,1.0,3.1,26,0.00,,,-99.99,FreeWX-Wi 1.02,2013-02-22 20:56:00,
2013-02-22 16:01:00,35.8,4.3,30.33,East,101,1.0,3.6,26,0.00,,,-99.99,FreeWX-Wi 1.02,2013-02-22 21:01:00,
2013-02-22 16:06:00,35.6,4.1,30.33,ESE,102,1.0,3.1,26,0.00,,,-99.99,FreeWX-Wi 1.02,2013-02-22 21:06:00,
2013-02-22 16:11:00,35.6,4.1,30.33,ESE,107,1.0,4.0,26,0.00,,,-99.99,FreeWX-Wi 1.02,2013-02-22 21:11:00,
2013-02-22 16:16:00,35.2,4.6,30.33,ESE,108,2.0,5.4,27,0.00,,,-99.99,FreeWX-Wi 1.02,2013-02-22 21:16:00,
2013-02-22 16:21:00,35.1,4.5,30.33,ESE,123,1.0,3.6,27,0.00,,,-99.99,FreeWX-Wi 1.02,2013-02-22 21:21:00,
2013-02-22 16:26:00,35.1,4.5,30.33,ESE,119,1.0,3.6,27,0.00,,,-99.99,FreeWX-Wi 1.02,2013-02-22 21:26:00,
2013-02-22 16:31:00,35.1,4.5,30.33,SE,124,2.0,4.0,27,0.00,,,-99.99,FreeWX-Wi 1.02,2013-02-22 21:31:00,
2013-02-22 16:36:00,34.9,4.3,30.33,SE,128,2.0,3.1,27,0.00,,,-99.99,FreeWX-Wi 1.02,2013-02-22 21:36:00,